Location: Newark
(29.4733°N, 82.6067°W)
Time: 11:25:36
(UTC+00:00)

STARLINK-3107 - Pass Details

Date: 28 September 2021
Orbit: 357 x 362 km, 70.0° (Epoch: 23 October)

Event Time Altitude Azimuth Distance (km) Brightness Sun altitude
Rises 10:52:58 0° 173° (S) 2,166 6.7 -7.2°
Reaches altitude 10° 10:55:16 10° 154° (SSE) 1,327 5.9 -6.7°
Maximum altitude 10:57:27 19° 106° (ESE) 920 6.0 -6.2°
Drops below altitude 10° 10:59:38 10° 57° (ENE) 1,336 6.6 -5.7°
Sets 11:01:58 0° 39° (NE) 2,187 7.3 -5.2°
